sat.trackr.live / text

‹ back to catalog

STARLINK-32423

NORAD 61218 · 2024-171U

PAYLOAD ACTIVE UNKNOWN

§ Identity

Operator
Country
US
Launch date
2024-09-20
Launch site
AFWTR
Launch vehicle
Mass (kg)
RCS (m²)

Purposes: comms

External: N2YO · Heavens-Above · Gunter

§ Orbital elements

Epoch: 2026-09-21T20:04:25.846464Z

Period
94.01 min
Inclination
53.1590°
Eccentricity
0.0001304
Mean motion
15.31704877 rev/d
Perigee alt
469.8 km
Apogee alt
471.6 km
Semi-major
6,848.9 km
B*
2.7791e-5
RAAN
130.3544°
Arg perigee
99.0967°
Mean anomaly
261.0182°
Rev number
11,332

§ Raw data

STARLINK-324231 61218U 24171U   26264.83641026  .00000497  00000+0  27791-4 0  99922 61218  53.1590 130.3544 0001304  99.0967 261.0182 15.31704877113324

JSON: /api/v1/satellites/61218 · /tle

For live sub-satellite position, see the globe view (requires WebGL).

§ Visibility from observer

Set your observer location to see the next 7 days of passes ≥ 10°. The values pass through the URL so the page stays shareable.

No JS? Fill the form by hand. The geolocation button needs JavaScript.